EW1760 Weather Reports


Display with metric or nautical units.
time (UTC)temp
F
wind
direction
speed
MPH
gust
MPH
rain 1hr
in
rain 24hr
in
rain mn
in
humidity
%
barometer
mb
20181210063059 33 12 1.0 4.0 0.00 0.00 0.00 89 1017.8
20181210061638 33 360 3.0 9.0 0.00 0.00 0.00 89 1017.8
20181210060135 33 355 5.0 9.0 0.00 0.00 0.00 90 1018.0
20181210054601 33 24 2.0 5.0 0.00 0.00 0.00 90 1018.2
20181210053053 33 355 2.0 5.0 0.00 0.00 0.00 90 1018.4
20181210051614 33 9 1.0 4.0 0.00 0.00 0.00 90 1018.4
20181210050035 33 355 0.0 3.0 0.00 0.00 0.00 90 1018.6
20181210044526 33 360 1.0 4.0 0.00 0.00 0.00 90 1018.6
20181210043111 33 26 2.0 6.0 0.00 0.00 0.00 91 1018.9
20181210041525 33 355 1.0 6.0 0.00 0.00 0.00 91 1019.1
20181210040026 33 360 2.0 5.0 0.00 0.00 0.00 92 1019.2
20181210034551 33 346 1.0 5.0 0.00 0.00 0.00 92 1019.5
20181210033040 33 17 1.0 4.0 0.00 0.00 0.00 93 1019.7
20181210031528 33 360 1.0 6.0 0.00 0.00 0.00 93 1019.4
20181210030027 33 349 2.0 7.0 0.00 0.00 0.00 93 1019.7
20181210024539 33 350 2.0 8.0 0.00 0.00 0.00 93 1020.0
20181210023016 33 348 1.0 5.0 0.00 0.00 0.00 94 1020.1
20181210021513 33 347 1.0 5.0 0.00 0.00 0.00 94 1020.4
20181210020008 33 355 1.0 5.0 0.00 0.00 0.00 95 1020.4
20181210014506 32 33 0.0 8.0 0.00 0.00 0.00 95 1020.6
20181210013206 32 28 1.0 6.0 0.00 0.00 0.00 95 1020.9
20181210013002 32 61 1.0 6.0 0.00 0.00 0.00 95 1021.0
20181210010156 33 22 2.0 10.0 0.00 0.00 0.00 96 1020.9
20181210010001 33 49 1.0 8.0 0.00 0.00 0.00 96 1020.9
20181210003244 33 360 0.0 5.0 0.00 0.00 0.00 95 1021.2
20181210001646 32 360 0.0 9.0 0.00 0.00 0.00 95 1021.4
20181210000145 32 337 1.0 5.0 0.00 0.00 0.00 95 1021.6
20181209234657 32 28 0.0 4.0 0.00 0.00 0.00 95 1021.8
20181209233157 32 346 0.0 6.0 0.00 0.00 0.00 96 1022.5
20181209231639 32 336 0.0 4.0 0.00 0.00 0.00 95 1022.3
20181209230134 32 5 0.0 5.0 0.00 0.00 0.00 95 1022.1
20181209224635 32 13 0.0 5.0 0.00 0.00 0.00 95 1022.2
20181209223201 32 355 1.0 6.0 0.00 0.00 0.00 95 1022.7
20181209221617 32 18 0.0 5.0 0.00 0.00 0.00 95 1022.8
20181209220052 32 355 0.0 4.0 0.00 0.00 0.00 95 1022.9
20181209214604 32 348 0.0 3.0 0.00 0.00 0.00 95 1022.9
20181209213127 32 14 0.0 2.0 0.00 0.00 0.00 95 1023.5
20181209211559 32 52 0.0 9.0 0.00 0.00 0.00 95 1023.2
20181209210126 32 34 1.0 8.0 0.00 0.00 0.00 94 1023.4
20181209204603 32 43 0.0 4.0 0.00 0.00 0.00 94 1023.5
20181209203045 32 51 0.0 6.0 0.00 0.00 0.00 94 1023.6
20181209201536 32 51 1.0 7.0 0.00 0.00 0.00 93 1023.6
20181209200055 32 28 0.0 6.0 0.00 0.00 0.00 93 1024.0
20181209194628 32 19 0.0 5.0 0.00 0.00 0.00 92 1024.0
20181209193050 32 49 0.0 6.0 0.00 0.00 0.00 92 1024.3
20181209191554 32 40 0.0 10.0 0.00 0.00 0.00 91 1024.7
20181209190016 32 30 0.0 7.0 0.00 0.00 0.00 90 1025.0
20181209184537 32 32 0.0 7.0 0.00 0.00 0.00 88 1025.2
20181209183049 33 48 1.0 8.0 0.00 0.00 0.00 86 1025.2
20181209181508 33 11 0.0 6.0 0.00 0.00 0.00 82 1025.6
20181209180023 35 22 0.0 8.0 0.00 0.00 0.00 76 1026.0
20181209174512 35 22 0.0 5.0 0.00 0.00 0.00 74 1026.2
20181209171636 35 32 0.0 3.0 0.00 0.00 0.00 73 1026.6
20181209170144 35 32 0.0 5.0 0.00 0.00 0.00 72 1027.2
20181209164636 35 22 0.0 8.0 0.00 0.00 0.00 71 1027.5
20181209163208 35 17 0.0 6.0 0.00 0.00 0.00 70 1027.7
20181209161745 35 26 0.0 7.0 0.00 0.00 0.00 69 1028.3
20181209160122 35 31 0.0 4.0 0.00 0.00 0.00 70 1028.6
20181209154631 35 11 0.0 2.0 0.00 0.00 0.00 69 1029.0
20181209153205 35 28 0.0 4.0 0.00 0.00 0.00 69 1029.2
20181209151630 35 25 0.0 4.0 0.00 0.00 0.00 69 1029.4
20181209150121 34 360 0.0 3.0 0.00 0.00 0.00 69 1029.6
20181209144605 34 45 0.0 3.0 0.00 0.00 0.00 69 1029.6
20181209143039 34 22 0.0 5.0 0.00 0.00 0.00 69 1029.4
20181209141537 34 26 0.0 4.0 0.00 0.00 0.00 69 1029.7
20181209140034 34 17 0.0 3.0 0.00 0.00 0.00 69 1030.3
20181209134551 34 32 0.0 5.0 0.00 0.00 0.00 70 1030.3
20181209133134 33 20 0.0 3.0 0.00 0.00 0.00 70 1030.4
20181209131539 33 5 0.0 0.0 0.00 0.00 0.00 70 1031.3
20181209130027 33 5 0.0 0.0 0.00 0.00 0.00 71 1031.2
20181209124606 33 360 0.0 0.0 0.00 0.00 0.00 71 1030.8
20181209123033 33 360 0.0 0.0 0.00 0.00 0.00 71 1030.7
20181209121543 33 360 0.0 0.0 0.00 0.00 0.00 71 1031.0
20181209120121 33 360 0.0 0.0 0.00 0.00 0.00 72 1030.7
20181209114554 33 360 0.0 0.0 0.00 0.00 0.00 71 1031.1
20181209113045 33 360 0.0 0.0 0.00 0.00 0.00 71 1031.2
20181209111534 33 360 0.0 0.0 0.00 0.00 0.00 70 1031.5
20181209110023 33 360 0.0 0.0 0.00 0.00 0.00 70 1031.6
20181209104539 33 360 0.0 0.0 0.00 0.00 0.00 68 1031.7
20181209103025 33 360 0.0 0.0 0.00 0.00 0.00 70 1031.6
20181209101537 33 360 0.0 0.0 0.00 0.00 0.00 68 1031.7
20181209100021 33 360 0.0 0.0 0.00 0.00 0.00 68 1032.0
20181209094509 33 360 0.0 0.0 0.00 0.00 0.00 69 1032.0
20181209093034 33 360 0.0 0.0 0.00 0.00 0.00 69 1032.2
20181209091513 33 360 0.0 0.0 0.00 0.00 0.00 71 1032.4
20181209090007 32 360 0.0 0.0 0.00 0.00 0.00 70 1032.6
20181209084502 32 360 0.0 0.0 0.00 0.00 0.00 72 1032.5
20181209083156 32 360 0.0 0.0 0.00 0.00 0.00 72 1032.6
20181209081725 33 360 0.0 0.0 0.00 0.00 0.00 71 1032.8
20181209080258 33 360 0.0 0.0 0.00 0.00 0.00 70 1032.8
20181209074605 33 360 0.0 0.0 0.00 0.00 0.00 70 1033.2
20181209073141 33 360 0.0 0.0 0.00 0.00 0.00 69 1033.6
20181209071608 33 360 0.0 0.0 0.00 0.00 0.00 69 1033.6
20181209070137 33 360 0.0 0.0 0.00 0.00 0.00 68 1033.3
20181209064650 33 360 0.0 0.0 0.00 0.00 0.00 67 1033.3